• In Hungary
  • List of Countries
  • For 7 days
  • Water Temperature
  • Satellite Maps
  • Weather Map
  • News
  • Weather Widgets
  • user-avatar
    Login

    Hourly Weather Kika

    Today, 18 December, Monday

    Time Temperature Precipitation Wind Pressure Humidity
    00:00 -17°C° 0.1 mm 5 mps 725 mmHg 89%
    01:00 -18°C° 0 mm 5 mps 725 mmHg 89%
    02:00 -17°C° 0 mm 4 mps 725 mmHg 90%
    03:00 -18°C° 0 mm 4 mps 725 mmHg 91%
    04:00 -17°C° 0 mm 3 mps 726 mmHg 92%
    05:00 -18°C° 0 mm 3 mps 726 mmHg 93%
    06:00 -17°C° 0 mm 2 mps 726 mmHg 93%
    07:00 -17°C° 0 mm 2 mps 726 mmHg 94%
    08:00 -16°C° 0 mm 2 mps 726 mmHg 93%
    09:00 -15°C° 0 mm 2 mps 726 mmHg 91%
    10:00 -14°C° 0 mm 2 mps 726 mmHg 90%
    11:00 -13°C° 0 mm 2 mps 725 mmHg 89%
    12:00 -12°C° 0 mm 2 mps 725 mmHg 87%
    13:00 -12°C° 0 mm 3 mps 724 mmHg 86%
    14:00 -13°C° 0.2 mm 3 mps 724 mmHg 88%
    15:00 -12°C° 0.2 mm 2 mps 723 mmHg 91%
    16:00 -12°C° 0.2 mm 2 mps 723 mmHg 93%
    17:00 -12°C° 0.3 mm 2 mps 722 mmHg 93%
    18:00 -12°C° 0.3 mm 3 mps 722 mmHg 94%
    19:00 -12°C° 0.3 mm 3 mps 721 mmHg 94%
    20:00 -10°C° 0.3 mm 3 mps 721 mmHg 94%
    21:00 -10°C° 0.3 mm 3 mps 721 mmHg 94%
    22:00 -9°C° 0.3 mm 3 mps 720 mmHg 93%
    23:00 -9°C° 0.2 mm 3 mps 720 mmHg 93%

    Tomorrow, 19 December, Tuesday

    Time Temperature Precipitation Wind Pressure Humidity
    00:00 -10°C° 0.2 mm 4 mps 720 mmHg 93%
    01:00 -10°C° 0.2 mm 4 mps 720 mmHg 93%
    02:00 -10°C° 0.2 mm 4 mps 720 mmHg 92%
    03:00 -10°C° 0.2 mm 4 mps 719 mmHg 92%
    04:00 -10°C° 0.2 mm 4 mps 719 mmHg 91%
    05:00 -10°C° 0.2 mm 4 mps 719 mmHg 92%
    06:00 -10°C° 0.2 mm 4 mps 719 mmHg 92%
    07:00 -9°C° 0.2 mm 3 mps 719 mmHg 93%
    08:00 -10°C° 0.2 mm 4 mps 719 mmHg 92%
    09:00 -9°C° 0.2 mm 4 mps 719 mmHg 91%
    10:00 -9°C° 0.2 mm 4 mps 719 mmHg 90%
    11:00 -8°C° 0.2 mm 4 mps 719 mmHg 89%
    12:00 -8°C° 0.2 mm 4 mps 719 mmHg 88%
    13:00 -8°C° 0.2 mm 4 mps 719 mmHg 87%
    14:00 -8°C° 0.2 mm 4 mps 720 mmHg 89%
    15:00 -8°C° 0.2 mm 3 mps 720 mmHg 90%
    16:00 -8°C° 0.2 mm 3 mps 720 mmHg 92%
    17:00 -8°C° 0.2 mm 3 mps 720 mmHg 92%
    18:00 -8°C° 0.2 mm 3 mps 720 mmHg 92%
    19:00 -8°C° 0.2 mm 3 mps 721 mmHg 92%
    20:00 -8°C° 0.1 mm 3 mps 720 mmHg 90%
    21:00 -8°C° 0.1 mm 3 mps 720 mmHg 89%
    22:00 -9°C° 0.1 mm 4 mps 720 mmHg 87%
    23:00 -10°C° 0 mm 4 mps 720 mmHg 86%

    Day after tomorrow, 20 December, Wednesday

    Time Temperature Precipitation Wind Pressure Humidity
    00:00 -10°C° 0 mm 4 mps 720 mmHg 84%
    01:00 -11°C° 0 mm 4 mps 720 mmHg 83%
    02:00 -11°C° 0 mm 4 mps 720 mmHg 82%
    03:00 -12°C° 0 mm 4 mps 719 mmHg 82%
    04:00 -12°C° 0 mm 3 mps 719 mmHg 81%
    05:00 -13°C° 0 mm 3 mps 719 mmHg 81%
    06:00 -13°C° 0 mm 3 mps 719 mmHg 81%
    07:00 -13°C° 0 mm 3 mps 719 mmHg 80%
    08:00 -13°C° 0 mm 3 mps 719 mmHg 78%
    09:00 -12°C° 0 mm 3 mps 719 mmHg 76%
    10:00 -11°C° 0 mm 4 mps 719 mmHg 74%
    11:00 -10°C° 0 mm 4 mps 719 mmHg 72%
    12:00 -8°C° 0 mm 4 mps 718 mmHg 69%
    13:00 -7°C° 0 mm 4 mps 718 mmHg 67%
    14:00 -9°C° 0 mm 4 mps 718 mmHg 70%
    15:00 -9°C° 0 mm 3 mps 718 mmHg 73%
    16:00 -12°C° 0 mm 3 mps 718 mmHg 77%
    17:00 -13°C° 0 mm 3 mps 718 mmHg 77%
    18:00 -13°C° 0 mm 3 mps 718 mmHg 77%
    19:00 -14°C° 0 mm 3 mps 718 mmHg 77%
    20:00 -14°C° 0 mm 3 mps 718 mmHg 79%
    21:00 -14°C° 0 mm 3 mps 718 mmHg 82%
    22:00 -13°C° 0 mm 2 mps 718 mmHg 84%
    23:00 -13°C° 0.1 mm 2 mps 718 mmHg 85%

    21 December, Thursday

    Time Temperature Precipitation Wind Pressure Humidity
    00:00 -13°C° 0.1 mm 2 mps 718 mmHg 87%
    01:00 -13°C° 0.1 mm 2 mps 718 mmHg 89%
    02:00 -13°C° 0.1 mm 2 mps 718 mmHg 90%
    03:00 -13°C° 0.1 mm 2 mps 718 mmHg 90%
    04:00 -13°C° 0.1 mm 2 mps 718 mmHg 91%
    05:00 -14°C° 0 mm 2 mps 718 mmHg 91%
    06:00 -14°C° 0 mm 2 mps 719 mmHg 90%
    07:00 -14°C° 0 mm 2 mps 719 mmHg 90%
    08:00 -15°C° 0 mm 3 mps 719 mmHg 88%
    09:00 -14°C° 0 mm 3 mps 719 mmHg 86%
    10:00 -13°C° 0 mm 3 mps 719 mmHg 85%
    11:00 -12°C° 0 mm 3 mps 719 mmHg 82%
    12:00 -10°C° 0 mm 3 mps 719 mmHg 80%
    13:00 -9°C° 0 mm 3 mps 718 mmHg 77%
    14:00 -12°C° 0 mm 3 mps 718 mmHg 81%
    15:00 -12°C° 0 mm 2 mps 718 mmHg 84%
    16:00 -14°C° 0 mm 2 mps 718 mmHg 87%
    17:00 -14°C° 0 mm 2 mps 718 mmHg 86%
    18:00 -14°C° 0 mm 2 mps 718 mmHg 85%
    19:00 -15°C° 0 mm 2 mps 718 mmHg 84%
    20:00 -15°C° 0 mm 2 mps 718 mmHg 84%
    21:00 -15°C° 0 mm 2 mps 718 mmHg 83%
    22:00 -15°C° 0 mm 2 mps 718 mmHg 82%
    23:00 -14°C° 0 mm 2 mps 718 mmHg 82%

    22 December, Friday

    Time Temperature Precipitation Wind Pressure Humidity
    00:00 -14°C° 0 mm 2 mps 718 mmHg 81%
    01:00 -14°C° 0 mm 2 mps 718 mmHg 81%
    02:00 -14°C° 0 mm 2 mps 718 mmHg 81%
    03:00 -14°C° 0 mm 2 mps 718 mmHg 82%
    04:00 -12°C° 0 mm 1 mps 717 mmHg 82%
    05:00 -14°C° 0 mm 2 mps 717 mmHg 83%
    06:00 -15°C° 0 mm 2 mps 717 mmHg 83%
    07:00 -15°C° 0 mm 2 mps 718 mmHg 84%
    08:00 -14°C° 0 mm 2 mps 718 mmHg 84%
    09:00 -14°C° 0 mm 3 mps 718 mmHg 84%
    10:00 -13°C° 0 mm 3 mps 718 mmHg 84%
    11:00 -12°C° 0.1 mm 4 mps 718 mmHg 84%
    12:00 -12°C° 0.1 mm 4 mps 718 mmHg 84%
    13:00 -12°C° 0.1 mm 5 mps 718 mmHg 84%
    14:00 -11°C° 0.1 mm 4 mps 718 mmHg 86%
    15:00 -12°C° 0.1 mm 4 mps 718 mmHg 88%
    16:00 -14°C° 0.1 mm 4 mps 718 mmHg 90%
    17:00 -13°C° 0.1 mm 3 mps 718 mmHg 91%
    18:00 -13°C° 0.1 mm 3 mps 718 mmHg 92%
    19:00 -13°C° 0.1 mm 3 mps 718 mmHg 92%
    20:00 -13°C° 0.2 mm 3 mps 718 mmHg 93%
    21:00 -14°C° 0.2 mm 3 mps 718 mmHg 93%
    22:00 -14°C° 0.2 mm 3 mps 718 mmHg 93%
    23:00 -14°C° 0.1 mm 3 mps 718 mmHg 93%

    23 December, Saturday

    Time Temperature Precipitation Wind Pressure Humidity
    00:00 -14°C° 0.1 mm 3 mps 718 mmHg 93%
    01:00 -14°C° 0.1 mm 3 mps 717 mmHg 93%
    02:00 -15°C° 0.1 mm 4 mps 717 mmHg 93%
    03:00 -15°C° 0.1 mm 4 mps 717 mmHg 93%
    04:00 -15°C° 0.1 mm 4 mps 717 mmHg 92%
    05:00 -15°C° 0.1 mm 4 mps 718 mmHg 92%
    06:00 -15°C° 0.1 mm 4 mps 718 mmHg 92%
    07:00 -16°C° 0.1 mm 4 mps 718 mmHg 92%
    08:00 -15°C° 0.1 mm 4 mps 718 mmHg 90%
    09:00 -15°C° 0.1 mm 5 mps 718 mmHg 89%
    10:00 -15°C° 0.1 mm 5 mps 718 mmHg 87%
    11:00 -15°C° 0.1 mm 5 mps 718 mmHg 87%
    12:00 -15°C° 0.1 mm 5 mps 718 mmHg 86%
    13:00 -15°C° 0.1 mm 5 mps 719 mmHg 85%
    14:00 -15°C° 0.1 mm 5 mps 719 mmHg 87%
    15:00 -17°C° 0.1 mm 5 mps 720 mmHg 88%
    16:00 -17°C° 0.1 mm 4 mps 721 mmHg 90%
    17:00 -17°C° 0.1 mm 4 mps 721 mmHg 90%
    18:00 -17°C° 0.1 mm 4 mps 722 mmHg 90%
    19:00 -18°C° 0.1 mm 4 mps 723 mmHg 91%
    20:00 -18°C° 0.1 mm 4 mps 723 mmHg 91%
    21:00 -19°C° 0.1 mm 4 mps 723 mmHg 92%
    22:00 -19°C° 0.1 mm 4 mps 724 mmHg 92%
    23:00 -18°C° 0.1 mm 3 mps 724 mmHg 92%
    Show more